DECAYED

COSMOS 1275 DEB, 12756 (Decayed)

Orbit data source: Space-Track

COSMOS 1275 DEB, 12756 was space debris in LEO originally from a launch on Thu, 04 Jun 1981 UTC launched from the Plesetsk Missile And Space Complex (PKMTR). Debris objects in space refer to the collection of defunct objects orbiting the Earth. Examples of debris include non-operational satellites, rocket bodies, and fragments generated from explosions, collisions, or faulty payload assembly.

Not visible in the next 10 days
Identifier
12756, 1981-053CZ
Orbit
Decayed
Country
Flag of CISCIS
Related business
Manufacturer
Unknown
Mission
Decayed spacecraft
Bus & Motor
Unknown
Mass
Unknown
Launch date (UTC)
1981-06-04 (44 years ago)
Launch vehicle
Unknown
Launch site
Plesetsk Missile And Space Complex (PKMTR)
Object type
Payload
Rocket body
Debris
Shape & HBR
Unknown shape, 0.1 m
Radar Cross Section
Small (<0.1 m²)

Expand to show TLE details & history
Last TLE update: 2 months ago

TLE from 2 months ago
0 COSMOS 1275 DEB
1 12756U 81053CZ  25238.06481593  .03922084  27403-1  10558-1 0  9999
2 12756  82.9388 204.2633 0022172 170.1138 190.0581 15.98946789291918
Epoch: 2025-08-26T01:33Z
TLE epoch observation values (Epoch: 2025-08-26T01:33:20.096Z)
Latitude
-0.0001°
Longitude
-153.63233°
Altitude
295.08 km
Speed
7.722 km/s
True Right ascension
13h 37m 03s
True Declination
0° 00' 00"
Sunlit
Object was in daylight at epoch
Visualization orbit readout
Latitude
Unknown
Longitude
Unknown
Altitude
Unknown
Speed
Unknown
Apparent Right ascension
Unknown
Apparent Declination
Unknown
Sunlit
N/A
Visualization observer readout
Local Sidereal Time
07:57:16
Azimuth
Unknown
Elevation
Unknown
Doppler factor
Unknown
Orbital elements
Apogee altitude
288.936 km
Perigee altitude
259.437 km
Semi-major axis
6,652.323 km
Eccentricity
0.00222
Inclination
82.9388°
RAAN
204.2633°
Arg. of periapsis
170.1138°
True anomaly
190.01385°
Mean anomaly
190.0581°
Eccentric anomaly
190.03596°
Mean motion
4.00021 °/min
Orbital period
90 mins
BSTAR
0.010558
Loading maneuver chart data...
Computing Atmospheric mass density...

Documentation

Showing up to 5 results
|